When you browse on this site, cookies collect data to enhance your experience and personalize the content and advertising you see.
Visit our Privacy Policy to learn more. By continuing to use the site, you agree to this use of cookies and data.
  • Em Portugal
  • Lista de países
  • Para 7 dias
  • Temperatura da água
  • Mapas de satélite
  • Mapa do tempo
  • Widgets de tempo
  • user-avatar
    Iniciar Sessão

    Previsão horária em Brest

    Hoje, 21 Maio, Terça-feira

    Tempo Temperatura Precipitação Vento Pressão Humidade
    00:00 +18°C° 0 mm 4 m/s 743 mmHg 90%
    01:00 +18°C° 0 mm 4 m/s 743 mmHg 89%
    02:00 +18°C° 0 mm 4 m/s 743 mmHg 89%
    03:00 +17°C° 0 mm 4 m/s 743 mmHg 90%
    04:00 +17°C° 0 mm 4 m/s 743 mmHg 92%
    05:00 +17°C° 0 mm 4 m/s 743 mmHg 93%
    06:00 +17°C° 0 mm 5 m/s 743 mmHg 91%
    07:00 +17°C° 0 mm 5 m/s 743 mmHg 88%
    08:00 +19°C° 0 mm 6 m/s 742 mmHg 85%
    09:00 +20°C° 0.1 mm 6 m/s 742 mmHg 84%
    10:00 +20°C° 0.1 mm 6 m/s 742 mmHg 82%
    11:00 +20°C° 0.1 mm 6 m/s 742 mmHg 80%
    12:00 +20°C° 0.7 mm 7 m/s 742 mmHg 80%
    13:00 +21°C° 0.7 mm 8 m/s 742 mmHg 79%
    14:00 +21°C° 0.7 mm 8 m/s 741 mmHg 78%
    15:00 +21°C° 0.2 mm 8 m/s 741 mmHg 76%
    16:00 +20°C° 0.2 mm 8 m/s 741 mmHg 75%
    17:00 +20°C° 0.2 mm 7 m/s 741 mmHg 73%
    18:00 +17°C° 0 mm 6 m/s 741 mmHg 76%
    19:00 +16°C° 0 mm 5 m/s 741 mmHg 78%
    20:00 +14°C° 0 mm 4 m/s 741 mmHg 81%
    21:00 +14°C° 0 mm 4 m/s 741 mmHg 82%
    22:00 +13°C° 0 mm 4 m/s 741 mmHg 83%
    23:00 +13°C° 0 mm 4 m/s 741 mmHg 83%

    Amanhã, 22 Maio, Quarta-feira

    Tempo Temperatura Precipitação Vento Pressão Humidade
    00:00 +12°C° 0 mm 4 m/s 741 mmHg 85%
    01:00 +12°C° 0 mm 4 m/s 741 mmHg 86%
    02:00 +12°C° 0 mm 4 m/s 741 mmHg 87%
    03:00 +11°C° 0 mm 4 m/s 741 mmHg 89%
    04:00 +11°C° 0 mm 4 m/s 741 mmHg 90%
    05:00 +11°C° 0 mm 4 m/s 741 mmHg 92%
    06:00 +12°C° 0 mm 5 m/s 741 mmHg 89%
    07:00 +13°C° 0 mm 5 m/s 741 mmHg 86%
    08:00 +14°C° 0 mm 5 m/s 741 mmHg 83%
    09:00 +15°C° 0.1 mm 5 m/s 742 mmHg 85%
    10:00 +15°C° 0.1 mm 5 m/s 742 mmHg 86%
    11:00 +15°C° 0.1 mm 5 m/s 742 mmHg 88%
    12:00 +17°C° 0.2 mm 4 m/s 742 mmHg 84%
    13:00 +18°C° 0.2 mm 4 m/s 742 mmHg 81%
    14:00 +19°C° 0.2 mm 3 m/s 742 mmHg 78%
    15:00 +19°C° 0.4 mm 3 m/s 742 mmHg 76%
    16:00 +19°C° 0.4 mm 3 m/s 742 mmHg 75%
    17:00 +19°C° 0.4 mm 2 m/s 742 mmHg 74%
    18:00 +18°C° 0.1 mm 2 m/s 742 mmHg 78%
    19:00 +17°C° 0.1 mm 2 m/s 742 mmHg 83%
    20:00 +16°C° 0.1 mm 1 m/s 742 mmHg 87%
    21:00 +15°C° 0 mm 1 m/s 742 mmHg 89%
    22:00 +15°C° 0 mm 1 m/s 743 mmHg 91%
    23:00 +14°C° 0 mm 1 m/s 743 mmHg 93%

    Depois de amanhã, 23 Maio, Quinta-feira

    Tempo Temperatura Precipitação Vento Pressão Humidade
    00:00 +14°C° 0 mm 1 m/s 743 mmHg 93%
    01:00 +13°C° 0 mm 1 m/s 743 mmHg 93%
    02:00 +13°C° 0 mm 1 m/s 743 mmHg 94%
    03:00 +13°C° 0 mm 1 m/s 743 mmHg 94%
    04:00 +13°C° 0 mm 1 m/s 743 mmHg 95%
    05:00 +12°C° 0 mm 1 m/s 743 mmHg 95%
    06:00 +14°C° 0 mm 1 m/s 744 mmHg 91%
    07:00 +16°C° 0 mm 1 m/s 744 mmHg 87%
    08:00 +18°C° 0 mm 1 m/s 744 mmHg 82%
    09:00 +19°C° 0.2 mm 1 m/s 744 mmHg 77%
    10:00 +21°C° 0.2 mm 1 m/s 744 mmHg 72%
    11:00 +21°C° 0.2 mm 2 m/s 744 mmHg 67%
    12:00 +21°C° 1.7 mm 2 m/s 744 mmHg 67%
    13:00 +23°C° 1.7 mm 2 m/s 744 mmHg 67%
    14:00 +23°C° 1.7 mm 2 m/s 744 mmHg 66%
    15:00 +21°C° 2.2 mm 3 m/s 744 mmHg 71%
    16:00 +21°C° 2.2 mm 4 m/s 744 mmHg 76%
    17:00 +20°C° 2.2 mm 5 m/s 744 mmHg 81%
    18:00 +19°C° 1.2 mm 5 m/s 744 mmHg 85%
    19:00 +16°C° 1.2 mm 6 m/s 744 mmHg 89%
    20:00 +15°C° 1.2 mm 6 m/s 745 mmHg 92%
    21:00 +14°C° 0.9 mm 6 m/s 745 mmHg 93%
    22:00 +13°C° 0.9 mm 6 m/s 745 mmHg 93%
    23:00 +11°C° 0.9 mm 6 m/s 745 mmHg 94%

    24 Maio, Sexta-feira

    Tempo Temperatura Precipitação Vento Pressão Humidade
    00:00 +11°C° 0.2 mm 6 m/s 745 mmHg 93%
    01:00 +10°C° 0.2 mm 6 m/s 745 mmHg 92%
    02:00 +9°C° 0.2 mm 6 m/s 745 mmHg 92%
    03:00 +9°C° 0.1 mm 5 m/s 745 mmHg 91%
    04:00 +8°C° 0.1 mm 5 m/s 745 mmHg 90%
    05:00 +8°C° 0.1 mm 4 m/s 745 mmHg 88%
    06:00 +10°C° 0.1 mm 4 m/s 746 mmHg 88%
    07:00 +10°C° 0.1 mm 4 m/s 746 mmHg 87%
    08:00 +10°C° 0.1 mm 4 m/s 746 mmHg 86%
    09:00 +12°C° 0 mm 4 m/s 746 mmHg 83%
    10:00 +13°C° 0 mm 4 m/s 746 mmHg 81%
    11:00 +14°C° 0 mm 4 m/s 746 mmHg 78%
    12:00 +15°C° 0 mm 4 m/s 746 mmHg 75%
    13:00 +17°C° 0 mm 4 m/s 745 mmHg 72%
    14:00 +18°C° 0 mm 4 m/s 745 mmHg 68%
    15:00 +18°C° 0 mm 4 m/s 745 mmHg 68%
    16:00 +18°C° 0 mm 4 m/s 745 mmHg 67%
    17:00 +19°C° 0 mm 4 m/s 744 mmHg 66%
    18:00 +18°C° 0 mm 3 m/s 744 mmHg 71%
    19:00 +17°C° 0 mm 3 m/s 744 mmHg 75%
    20:00 +16°C° 0 mm 2 m/s 744 mmHg 79%
    21:00 +15°C° 0 mm 2 m/s 744 mmHg 81%
    22:00 +14°C° 0 mm 2 m/s 744 mmHg 83%
    23:00 +13°C° 0 mm 2 m/s 745 mmHg 85%

    25 Maio, Sábado

    Tempo Temperatura Precipitação Vento Pressão Humidade
    00:00 +13°C° 0 mm 2 m/s 744 mmHg 87%
    01:00 +12°C° 0 mm 2 m/s 744 mmHg 89%
    02:00 +10°C° 0 mm 2 m/s 744 mmHg 92%
    03:00 +10°C° 0 mm 2 m/s 744 mmHg 92%
    04:00 +9°C° 0 mm 2 m/s 745 mmHg 92%
    05:00 +9°C° 0 mm 2 m/s 745 mmHg 92%
    06:00 +12°C° 0 mm 2 m/s 745 mmHg 84%
    07:00 +13°C° 0 mm 2 m/s 745 mmHg 76%
    08:00 +15°C° 0 mm 1 m/s 745 mmHg 69%
    09:00 +17°C° 0 mm 2 m/s 745 mmHg 65%
    10:00 +18°C° 0 mm 2 m/s 745 mmHg 61%
    11:00 +19°C° 0 mm 2 m/s 744 mmHg 58%
    12:00 +20°C° 0 mm 2 m/s 744 mmHg 57%
    13:00 +21°C° 0 mm 3 m/s 744 mmHg 56%
    14:00 +21°C° 0 mm 3 m/s 744 mmHg 56%
    15:00 +21°C° 0.3 mm 3 m/s 744 mmHg 59%
    16:00 +21°C° 0.3 mm 3 m/s 744 mmHg 62%
    17:00 +20°C° 0.3 mm 4 m/s 743 mmHg 65%
    18:00 +19°C° 0.3 mm 3 m/s 743 mmHg 71%
    19:00 +18°C° 0.3 mm 3 m/s 743 mmHg 76%
    20:00 +17°C° 0.3 mm 2 m/s 743 mmHg 82%
    21:00 +16°C° 0 mm 2 m/s 743 mmHg 85%
    22:00 +15°C° 0 mm 2 m/s 744 mmHg 88%
    23:00 +14°C° 0 mm 2 m/s 744 mmHg 91%

    26 Maio, Domingo

    Tempo Temperatura Precipitação Vento Pressão Humidade
    00:00 +13°C° 0 mm 2 m/s 744 mmHg 93%
    01:00 +13°C° 0 mm 2 m/s 744 mmHg 95%
    02:00 +12°C° 0 mm 2 m/s 744 mmHg 96%
    03:00 +12°C° 0 mm 2 m/s 744 mmHg 97%
    04:00 +12°C° 0 mm 2 m/s 744 mmHg 97%
    05:00 +12°C° 0 mm 2 m/s 745 mmHg 98%
    06:00 +13°C° 0 mm 2 m/s 745 mmHg 95%
    07:00 +12°C° 0 mm 3 m/s 745 mmHg 91%
    08:00 +13°C° 0 mm 3 m/s 745 mmHg 88%
    09:00 +14°C° 0 mm 4 m/s 746 mmHg 80%
    10:00 +15°C° 0 mm 4 m/s 746 mmHg 73%
    11:00 +16°C° 0 mm 5 m/s 746 mmHg 65%
    12:00 +16°C° 0 mm 5 m/s 746 mmHg 65%
    13:00 +15°C° 0 mm 5 m/s 746 mmHg 65%
    14:00 +15°C° 0 mm 5 m/s 746 mmHg 65%
    15:00 +15°C° 0 mm 4 m/s 746 mmHg 66%
    16:00 +15°C° 0 mm 4 m/s 746 mmHg 67%
    17:00 +15°C° 0 mm 4 m/s 746 mmHg 68%
    18:00 +14°C° 0 mm 3 m/s 746 mmHg 72%
    19:00 +13°C° 0 mm 3 m/s 746 mmHg 76%
    20:00 +14°C° 0 mm 2 m/s 746 mmHg 81%
    21:00 +13°C° 0 mm 2 m/s 747 mmHg 84%
    22:00 +12°C° 0 mm 2 m/s 747 mmHg 87%
    23:00 +10°C° 0 mm 2 m/s 747 mmHg 90%
    Mostrar mais